COSMOS 2529 (757)

Last updated on Mon Sep 15 2025 00:03:19 GMT+0000 (Coordinated Universal Time)

1 43687U 18086A 25257.25673748 .00000027 00000+0 00000+0 0 9991 2 43687 64.2946 201.9095 0010577 257.7220 102.1535 2.13101867 53400
UTC large
Height (km)
Speed (km/s)
/
Latitude / Longitude
Inclination (degrees)
Orbital Period (minutes)
Azimuth
Elevation
Range (km)
Doppler Factor

Next 0 passes for location: London (51.5072 / 0.1276)

Sorry there are no passes over London.